timestamp,waterbody_station,lease,latitude,longitude,deployment_start_date,deployment_end_date,sensor,depth,mooring,Temperature_degrees Celsius,Salinity_practical salinity units,Dissolved Oxygen_percent saturation
2022-07-30T00:09:00,St. Mary's Bay-Centreville,,44.536239,-66.00172,2022-06-07,2022-08-22,aquaMeasure-670375,3.5,float,19.29,,
2022-07-30T00:19:00,St. Mary's Bay-Centreville,,44.536239,-66.00172,2022-06-07,2022-08-22,aquaMeasure-670375,3.5,float,19.49,,
2022-07-30T00:29:00,St. Mary's Bay-Centreville,,44.536239,-66.00172,2022-06-07,2022-08-22,aquaMeasure-670375,3.5,float,19.67,,
2022-07-30T00:39:00,St. Mary's Bay-Centreville,,44.536239,-66.00172,2022-06-07,2022-08-22,aquaMeasure-670375,3.5,float,19.65,,
2022-07-30T00:49:00,St. Mary's Bay-Centreville,,44.536239,-66.00172,2022-06-07,2022-08-22,aquaMeasure-670375,3.5,float,19.61,,
2022-07-30T00:59:00,St. Mary's Bay-Centreville,,44.536239,-66.00172,2022-06-07,2022-08-22,aquaMeasure-670375,3.5,float,19.45,,
2022-07-30T01:09:00,St. Mary's Bay-Centreville,,44.536239,-66.00172,2022-06-07,2022-08-22,aquaMeasure-670375,3.5,float,19.47,,
2022-07-30T01:19:00,St. Mary's Bay-Centreville,,44.536239,-66.00172,2022-06-07,2022-08-22,aquaMeasure-670375,3.5,float,19.33,,
2022-07-30T01:29:00,St. Mary's Bay-Centreville,,44.536239,-66.00172,2022-06-07,2022-08-22,aquaMeasure-670375,3.5,float,19.33,,
2022-07-30T01:39:00,St. Mary's Bay-Centreville,,44.536239,-66.00172,2022-06-07,2022-08-22,aquaMeasure-670375,3.5,float,19.31,,
2022-07-30T01:49:00,St. Mary's Bay-Centreville,,44.536239,-66.00172,2022-06-07,2022-08-22,aquaMeasure-670375,3.5,float,19.24,,
2022-07-30T01:59:00,St. Mary's Bay-Centreville,,44.536239,-66.00172,2022-06-07,2022-08-22,aquaMeasure-670375,3.5,float,19.18,,
2022-07-30T02:09:00,St. Mary's Bay-Centreville,,44.536239,-66.00172,2022-06-07,2022-08-22,aquaMeasure-670375,3.5,float,19.04,,
2022-07-30T02:19:00,St. Mary's Bay-Centreville,,44.536239,-66.00172,2022-06-07,2022-08-22,aquaMeasure-670375,3.5,float,19.02,,
2022-07-30T02:29:00,St. Mary's Bay-Centreville,,44.536239,-66.00172,2022-06-07,2022-08-22,aquaMeasure-670375,3.5,float,18.97,,
2022-07-30T02:39:00,St. Mary's Bay-Centreville,,44.536239,-66.00172,2022-06-07,2022-08-22,aquaMeasure-670375,3.5,float,18.95,,
2022-07-30T02:49:00,St. Mary's Bay-Centreville,,44.536239,-66.00172,2022-06-07,2022-08-22,aquaMeasure-670375,3.5,float,18.84,,
2022-07-30T02:59:00,St. Mary's Bay-Centreville,,44.536239,-66.00172,2022-06-07,2022-08-22,aquaMeasure-670375,3.5,float,18.97,,
2022-07-30T03:09:00,St. Mary's Bay-Centreville,,44.536239,-66.00172,2022-06-07,2022-08-22,aquaMeasure-670375,3.5,float,19.04,,
2022-07-30T03:19:00,St. Mary's Bay-Centreville,,44.536239,-66.00172,2022-06-07,2022-08-22,aquaMeasure-670375,3.5,float,18.91,,
2022-07-30T03:29:00,St. Mary's Bay-Centreville,,44.536239,-66.00172,2022-06-07,2022-08-22,aquaMeasure-670375,3.5,float,18.93,,
2022-07-30T03:39:00,St. Mary's Bay-Centreville,,44.536239,-66.00172,2022-06-07,2022-08-22,aquaMeasure-670375,3.5,float,18.97,,
2022-07-30T03:49:00,St. Mary's Bay-Centreville,,44.536239,-66.00172,2022-06-07,2022-08-22,aquaMeasure-670375,3.5,float,18.86,,
2022-07-30T03:59:00,St. Mary's Bay-Centreville,,44.536239,-66.00172,2022-06-07,2022-08-22,aquaMeasure-670375,3.5,float,18.97,,
2022-07-30T04:09:00,St. Mary's Bay-Centreville,,44.536239,-66.00172,2022-06-07,2022-08-22,aquaMeasure-670375,3.5,float,19.04,,
2022-07-30T04:19:00,St. Mary's Bay-Centreville,,44.536239,-66.00172,2022-06-07,2022-08-22,aquaMeasure-670375,3.5,float,19.04,,
2022-07-30T04:29:00,St. Mary's Bay-Centreville,,44.536239,-66.00172,2022-06-07,2022-08-22,aquaMeasure-670375,3.5,float,19.04,,
2022-07-30T04:39:00,St. Mary's Bay-Centreville,,44.536239,-66.00172,2022-06-07,2022-08-22,aquaMeasure-670375,3.5,float,18.88,,
2022-07-30T04:49:00,St. Mary's Bay-Centreville,,44.536239,-66.00172,2022-06-07,2022-08-22,aquaMeasure-670375,3.5,float,19.04,,
2022-07-30T04:59:00,St. Mary's Bay-Centreville,,44.536239,-66.00172,2022-06-07,2022-08-22,aquaMeasure-670375,3.5,float,19.06,,
2022-07-30T05:09:00,St. Mary's Bay-Centreville,,44.536239,-66.00172,2022-06-07,2022-08-22,aquaMeasure-670375,3.5,float,19.09,,
2022-07-30T05:19:00,St. Mary's Bay-Centreville,,44.536239,-66.00172,2022-06-07,2022-08-22,aquaMeasure-670375,3.5,float,19.02,,
2022-07-30T05:29:00,St. Mary's Bay-Centreville,,44.536239,-66.00172,2022-06-07,2022-08-22,aquaMeasure-670375,3.5,float,19.04,,
2022-07-30T05:39:00,St. Mary's Bay-Centreville,,44.536239,-66.00172,2022-06-07,2022-08-22,aquaMeasure-670375,3.5,float,19.09,,
2022-07-30T05:49:00,St. Mary's Bay-Centreville,,44.536239,-66.00172,2022-06-07,2022-08-22,aquaMeasure-670375,3.5,float,19.13,,
2022-07-30T05:59:00,St. Mary's Bay-Centreville,,44.536239,-66.00172,2022-06-07,2022-08-22,aquaMeasure-670375,3.5,float,19.4,,
2022-07-30T06:09:00,St. Mary's Bay-Centreville,,44.536239,-66.00172,2022-06-07,2022-08-22,aquaMeasure-670375,3.5,float,19.58,,
2022-07-30T06:19:00,St. Mary's Bay-Centreville,,44.536239,-66.00172,2022-06-07,2022-08-22,aquaMeasure-670375,3.5,float,19.63,,
2022-07-30T06:29:00,St. Mary's Bay-Centreville,,44.536239,-66.00172,2022-06-07,2022-08-22,aquaMeasure-670375,3.5,float,19.67,,
2022-07-30T06:39:00,St. Mary's Bay-Centreville,,44.536239,-66.00172,2022-06-07,2022-08-22,aquaMeasure-670375,3.5,float,19.74,,
2022-07-30T06:49:00,St. Mary's Bay-Centreville,,44.536239,-66.00172,2022-06-07,2022-08-22,aquaMeasure-670375,3.5,float,19.79,,
2022-07-30T06:59:00,St. Mary's Bay-Centreville,,44.536239,-66.00172,2022-06-07,2022-08-22,aquaMeasure-670375,3.5,float,19.88,,
2022-07-30T07:09:00,St. Mary's Bay-Centreville,,44.536239,-66.00172,2022-06-07,2022-08-22,aquaMeasure-670375,3.5,float,19.97,,
2022-07-30T07:19:00,St. Mary's Bay-Centreville,,44.536239,-66.00172,2022-06-07,2022-08-22,aquaMeasure-670375,3.5,float,20.02,,
2022-07-30T07:29:00,St. Mary's Bay-Centreville,,44.536239,-66.00172,2022-06-07,2022-08-22,aquaMeasure-670375,3.5,float,20.11,,
2022-07-30T07:39:00,St. Mary's Bay-Centreville,,44.536239,-66.00172,2022-06-07,2022-08-22,aquaMeasure-670375,3.5,float,19.74,,
2022-07-30T07:49:00,St. Mary's Bay-Centreville,,44.536239,-66.00172,2022-06-07,2022-08-22,aquaMeasure-670375,3.5,float,19.86,,
2022-07-30T07:59:00,St. Mary's Bay-Centreville,,44.536239,-66.00172,2022-06-07,2022-08-22,aquaMeasure-670375,3.5,float,19.9,,
2022-07-30T08:09:00,St. Mary's Bay-Centreville,,44.536239,-66.00172,2022-06-07,2022-08-22,aquaMeasure-670375,3.5,float,19.95,,
2022-07-30T08:19:00,St. Mary's Bay-Centreville,,44.536239,-66.00172,2022-06-07,2022-08-22,aquaMeasure-670375,3.5,float,20.04,,
2022-07-30T08:29:00,St. Mary's Bay-Centreville,,44.536239,-66.00172,2022-06-07,2022-08-22,aquaMeasure-670375,3.5,float,20.13,,
2022-07-30T08:39:00,St. Mary's Bay-Centreville,,44.536239,-66.00172,2022-06-07,2022-08-22,aquaMeasure-670375,3.5,float,20.18,,
2022-07-30T08:49:00,St. Mary's Bay-Centreville,,44.536239,-66.00172,2022-06-07,2022-08-22,aquaMeasure-670375,3.5,float,20.18,,
2022-07-30T08:59:00,St. Mary's Bay-Centreville,,44.536239,-66.00172,2022-06-07,2022-08-22,aquaMeasure-670375,3.5,float,20.22,,
2022-07-30T09:09:00,St. Mary's Bay-Centreville,,44.536239,-66.00172,2022-06-07,2022-08-22,aquaMeasure-670375,3.5,float,20.2,,
2022-07-30T09:19:00,St. Mary's Bay-Centreville,,44.536239,-66.00172,2022-06-07,2022-08-22,aquaMeasure-670375,3.5,float,20.08,,
2022-07-30T09:29:00,St. Mary's Bay-Centreville,,44.536239,-66.00172,2022-06-07,2022-08-22,aquaMeasure-670375,3.5,float,20.11,,
2022-07-30T09:39:00,St. Mary's Bay-Centreville,,44.536239,-66.00172,2022-06-07,2022-08-22,aquaMeasure-670375,3.5,float,20.18,,
2022-07-30T09:49:00,St. Mary's Bay-Centreville,,44.536239,-66.00172,2022-06-07,2022-08-22,aquaMeasure-670375,3.5,float,20.22,,
2022-07-30T09:59:00,St. Mary's Bay-Centreville,,44.536239,-66.00172,2022-06-07,2022-08-22,aquaMeasure-670375,3.5,float,20.22,,
2022-07-30T10:09:00,St. Mary's Bay-Centreville,,44.536239,-66.00172,2022-06-07,2022-08-22,aquaMeasure-670375,3.5,float,20.22,,
2022-07-30T10:19:00,St. Mary's Bay-Centreville,,44.536239,-66.00172,2022-06-07,2022-08-22,aquaMeasure-670375,3.5,float,20.29,,
2022-07-30T10:29:00,St. Mary's Bay-Centreville,,44.536239,-66.00172,2022-06-07,2022-08-22,aquaMeasure-670375,3.5,float,20.29,,
2022-07-30T10:39:00,St. Mary's Bay-Centreville,,44.536239,-66.00172,2022-06-07,2022-08-22,aquaMeasure-670375,3.5,float,20.29,,
2022-07-30T10:49:00,St. Mary's Bay-Centreville,,44.536239,-66.00172,2022-06-07,2022-08-22,aquaMeasure-670375,3.5,float,20.24,,
2022-07-30T10:59:00,St. Mary's Bay-Centreville,,44.536239,-66.00172,2022-06-07,2022-08-22,aquaMeasure-670375,3.5,float,20.31,,
2022-07-30T11:09:00,St. Mary's Bay-Centreville,,44.536239,-66.00172,2022-06-07,2022-08-22,aquaMeasure-670375,3.5,float,20.36,,
2022-07-30T11:19:00,St. Mary's Bay-Centreville,,44.536239,-66.00172,2022-06-07,2022-08-22,aquaMeasure-670375,3.5,float,20.36,,
2022-07-30T11:29:00,St. Mary's Bay-Centreville,,44.536239,-66.00172,2022-06-07,2022-08-22,aquaMeasure-670375,3.5,float,20.38,,
2022-07-30T11:39:00,St. Mary's Bay-Centreville,,44.536239,-66.00172,2022-06-07,2022-08-22,aquaMeasure-670375,3.5,float,20.38,,
2022-07-30T11:49:00,St. Mary's Bay-Centreville,,44.536239,-66.00172,2022-06-07,2022-08-22,aquaMeasure-670375,3.5,float,20.34,,
2022-07-30T11:59:00,St. Mary's Bay-Centreville,,44.536239,-66.00172,2022-06-07,2022-08-22,aquaMeasure-670375,3.5,float,20.34,,
2022-07-30T12:09:00,St. Mary's Bay-Centreville,,44.536239,-66.00172,2022-06-07,2022-08-22,aquaMeasure-670375,3.5,float,20.34,,
2022-07-30T12:19:00,St. Mary's Bay-Centreville,,44.536239,-66.00172,2022-06-07,2022-08-22,aquaMeasure-670375,3.5,float,20.31,,
2022-07-30T12:29:00,St. Mary's Bay-Centreville,,44.536239,-66.00172,2022-06-07,2022-08-22,aquaMeasure-670375,3.5,float,20.31,,
2022-07-30T12:39:00,St. Mary's Bay-Centreville,,44.536239,-66.00172,2022-06-07,2022-08-22,aquaMeasure-670375,3.5,float,20.31,,
2022-07-30T12:49:00,St. Mary's Bay-Centreville,,44.536239,-66.00172,2022-06-07,2022-08-22,aquaMeasure-670375,3.5,float,20.31,,
2022-07-30T12:59:00,St. Mary's Bay-Centreville,,44.536239,-66.00172,2022-06-07,2022-08-22,aquaMeasure-670375,3.5,float,20.27,,
2022-07-30T13:09:00,St. Mary's Bay-Centreville,,44.536239,-66.00172,2022-06-07,2022-08-22,aquaMeasure-670375,3.5,float,20.18,,
2022-07-30T13:19:00,St. Mary's Bay-Centreville,,44.536239,-66.00172,2022-06-07,2022-08-22,aquaMeasure-670375,3.5,float,20.22,,
2022-07-30T13:29:00,St. Mary's Bay-Centreville,,44.536239,-66.00172,2022-06-07,2022-08-22,aquaMeasure-670375,3.5,float,20.2,,
2022-07-30T13:39:00,St. Mary's Bay-Centreville,,44.536239,-66.00172,2022-06-07,2022-08-22,aquaMeasure-670375,3.5,float,20.15,,
2022-07-30T13:49:00,St. Mary's Bay-Centreville,,44.536239,-66.00172,2022-06-07,2022-08-22,aquaMeasure-670375,3.5,float,20.08,,
2022-07-30T13:59:00,St. Mary's Bay-Centreville,,44.536239,-66.00172,2022-06-07,2022-08-22,aquaMeasure-670375,3.5,float,20.08,,
2022-07-30T14:09:00,St. Mary's Bay-Centreville,,44.536239,-66.00172,2022-06-07,2022-08-22,aquaMeasure-670375,3.5,float,20.04,,
2022-07-30T14:19:00,St. Mary's Bay-Centreville,,44.536239,-66.00172,2022-06-07,2022-08-22,aquaMeasure-670375,3.5,float,19.51,,
2022-07-30T14:29:00,St. Mary's Bay-Centreville,,44.536239,-66.00172,2022-06-07,2022-08-22,aquaMeasure-670375,3.5,float,19.24,,
2022-07-30T14:39:00,St. Mary's Bay-Centreville,,44.536239,-66.00172,2022-06-07,2022-08-22,aquaMeasure-670375,3.5,float,19.0,,
2022-07-30T14:49:00,St. Mary's Bay-Centreville,,44.536239,-66.00172,2022-06-07,2022-08-22,aquaMeasure-670375,3.5,float,19.45,,
2022-07-30T14:59:00,St. Mary's Bay-Centreville,,44.536239,-66.00172,2022-06-07,2022-08-22,aquaMeasure-670375,3.5,float,19.31,,
2022-07-30T15:09:00,St. Mary's Bay-Centreville,,44.536239,-66.00172,2022-06-07,2022-08-22,aquaMeasure-670375,3.5,float,19.11,,
2022-07-30T15:19:00,St. Mary's Bay-Centreville,,44.536239,-66.00172,2022-06-07,2022-08-22,aquaMeasure-670375,3.5,float,18.91,,
2022-07-30T15:29:00,St. Mary's Bay-Centreville,,44.536239,-66.00172,2022-06-07,2022-08-22,aquaMeasure-670375,3.5,float,18.73,,
2022-07-30T15:39:00,St. Mary's Bay-Centreville,,44.536239,-66.00172,2022-06-07,2022-08-22,aquaMeasure-670375,3.5,float,18.84,,
2022-07-30T15:49:00,St. Mary's Bay-Centreville,,44.536239,-66.00172,2022-06-07,2022-08-22,aquaMeasure-670375,3.5,float,18.75,,
2022-07-30T15:59:00,St. Mary's Bay-Centreville,,44.536239,-66.00172,2022-06-07,2022-08-22,aquaMeasure-670375,3.5,float,18.68,,
2022-07-30T16:09:00,St. Mary's Bay-Centreville,,44.536239,-66.00172,2022-06-07,2022-08-22,aquaMeasure-670375,3.5,float,18.68,,
2022-07-30T16:19:00,St. Mary's Bay-Centreville,,44.536239,-66.00172,2022-06-07,2022-08-22,aquaMeasure-670375,3.5,float,18.57,,
2022-07-30T16:29:00,St. Mary's Bay-Centreville,,44.536239,-66.00172,2022-06-07,2022-08-22,aquaMeasure-670375,3.5,float,19.24,,
2022-07-30T16:39:00,St. Mary's Bay-Centreville,,44.536239,-66.00172,2022-06-07,2022-08-22,aquaMeasure-670375,3.5,float,19.27,,
2022-07-30T16:49:00,St. Mary's Bay-Centreville,,44.536239,-66.00172,2022-06-07,2022-08-22,aquaMeasure-670375,3.5,float,19.27,,
2022-07-30T16:59:00,St. Mary's Bay-Centreville,,44.536239,-66.00172,2022-06-07,2022-08-22,aquaMeasure-670375,3.5,float,19.31,,
2022-07-30T17:09:00,St. Mary's Bay-Centreville,,44.536239,-66.00172,2022-06-07,2022-08-22,aquaMeasure-670375,3.5,float,19.02,,
2022-07-30T17:19:00,St. Mary's Bay-Centreville,,44.536239,-66.00172,2022-06-07,2022-08-22,aquaMeasure-670375,3.5,float,18.88,,
2022-07-30T17:29:00,St. Mary's Bay-Centreville,,44.536239,-66.00172,2022-06-07,2022-08-22,aquaMeasure-670375,3.5,float,19.13,,
2022-07-30T17:39:00,St. Mary's Bay-Centreville,,44.536239,-66.00172,2022-06-07,2022-08-22,aquaMeasure-670375,3.5,float,19.22,,
2022-07-30T17:49:00,St. Mary's Bay-Centreville,,44.536239,-66.00172,2022-06-07,2022-08-22,aquaMeasure-670375,3.5,float,19.45,,
2022-07-30T17:59:00,St. Mary's Bay-Centreville,,44.536239,-66.00172,2022-06-07,2022-08-22,aquaMeasure-670375,3.5,float,19.56,,
2022-07-30T18:09:00,St. Mary's Bay-Centreville,,44.536239,-66.00172,2022-06-07,2022-08-22,aquaMeasure-670375,3.5,float,19.56,,
2022-07-30T18:19:00,St. Mary's Bay-Centreville,,44.536239,-66.00172,2022-06-07,2022-08-22,aquaMeasure-670375,3.5,float,19.49,,
2022-07-30T18:29:00,St. Mary's Bay-Centreville,,44.536239,-66.00172,2022-06-07,2022-08-22,aquaMeasure-670375,3.5,float,19.49,,
2022-07-30T18:39:00,St. Mary's Bay-Centreville,,44.536239,-66.00172,2022-06-07,2022-08-22,aquaMeasure-670375,3.5,float,19.61,,
2022-07-30T18:49:00,St. Mary's Bay-Centreville,,44.536239,-66.00172,2022-06-07,2022-08-22,aquaMeasure-670375,3.5,float,19.72,,
2022-07-30T18:59:00,St. Mary's Bay-Centreville,,44.536239,-66.00172,2022-06-07,2022-08-22,aquaMeasure-670375,3.5,float,19.79,,
2022-07-30T19:09:00,St. Mary's Bay-Centreville,,44.536239,-66.00172,2022-06-07,2022-08-22,aquaMeasure-670375,3.5,float,19.83,,
2022-07-30T19:19:00,St. Mary's Bay-Centreville,,44.536239,-66.00172,2022-06-07,2022-08-22,aquaMeasure-670375,3.5,float,19.9,,
2022-07-30T19:29:00,St. Mary's Bay-Centreville,,44.536239,-66.00172,2022-06-07,2022-08-22,aquaMeasure-670375,3.5,float,20.06,,
2022-07-30T19:39:00,St. Mary's Bay-Centreville,,44.536239,-66.00172,2022-06-07,2022-08-22,aquaMeasure-670375,3.5,float,20.29,,
2022-07-30T19:49:00,St. Mary's Bay-Centreville,,44.536239,-66.00172,2022-06-07,2022-08-22,aquaMeasure-670375,3.5,float,20.36,,
2022-07-30T19:59:00,St. Mary's Bay-Centreville,,44.536239,-66.00172,2022-06-07,2022-08-22,aquaMeasure-670375,3.5,float,20.38,,
2022-07-30T20:09:00,St. Mary's Bay-Centreville,,44.536239,-66.00172,2022-06-07,2022-08-22,aquaMeasure-670375,3.5,float,20.36,,
2022-07-30T20:19:00,St. Mary's Bay-Centreville,,44.536239,-66.00172,2022-06-07,2022-08-22,aquaMeasure-670375,3.5,float,20.4,,
2022-07-30T20:29:00,St. Mary's Bay-Centreville,,44.536239,-66.00172,2022-06-07,2022-08-22,aquaMeasure-670375,3.5,float,20.4,,
2022-07-30T20:39:00,St. Mary's Bay-Centreville,,44.536239,-66.00172,2022-06-07,2022-08-22,aquaMeasure-670375,3.5,float,20.36,,
2022-07-30T20:49:00,St. Mary's Bay-Centreville,,44.536239,-66.00172,2022-06-07,2022-08-22,aquaMeasure-670375,3.5,float,20.4,,
2022-07-30T20:59:00,St. Mary's Bay-Centreville,,44.536239,-66.00172,2022-06-07,2022-08-22,aquaMeasure-670375,3.5,float,20.36,,
2022-07-30T21:09:00,St. Mary's Bay-Centreville,,44.536239,-66.00172,2022-06-07,2022-08-22,aquaMeasure-670375,3.5,float,20.29,,
2022-07-30T21:19:00,St. Mary's Bay-Centreville,,44.536239,-66.00172,2022-06-07,2022-08-22,aquaMeasure-670375,3.5,float,20.15,,
2022-07-30T21:29:00,St. Mary's Bay-Centreville,,44.536239,-66.00172,2022-06-07,2022-08-22,aquaMeasure-670375,3.5,float,20.06,,
2022-07-30T21:39:00,St. Mary's Bay-Centreville,,44.536239,-66.00172,2022-06-07,2022-08-22,aquaMeasure-670375,3.5,float,20.18,,
2022-07-30T21:49:00,St. Mary's Bay-Centreville,,44.536239,-66.00172,2022-06-07,2022-08-22,aquaMeasure-670375,3.5,float,20.11,,
2022-07-30T21:59:00,St. Mary's Bay-Centreville,,44.536239,-66.00172,2022-06-07,2022-08-22,aquaMeasure-670375,3.5,float,20.15,,
2022-07-30T22:09:00,St. Mary's Bay-Centreville,,44.536239,-66.00172,2022-06-07,2022-08-22,aquaMeasure-670375,3.5,float,19.88,,
2022-07-30T22:19:00,St. Mary's Bay-Centreville,,44.536239,-66.00172,2022-06-07,2022-08-22,aquaMeasure-670375,3.5,float,19.79,,
2022-07-30T22:29:00,St. Mary's Bay-Centreville,,44.536239,-66.00172,2022-06-07,2022-08-22,aquaMeasure-670375,3.5,float,19.72,,
2022-07-30T22:39:00,St. Mary's Bay-Centreville,,44.536239,-66.00172,2022-06-07,2022-08-22,aquaMeasure-670375,3.5,float,20.11,,
2022-07-30T22:49:00,St. Mary's Bay-Centreville,,44.536239,-66.00172,2022-06-07,2022-08-22,aquaMeasure-670375,3.5,float,20.38,,
2022-07-30T22:59:00,St. Mary's Bay-Centreville,,44.536239,-66.00172,2022-06-07,2022-08-22,aquaMeasure-670375,3.5,float,19.47,,
2022-07-30T23:09:00,St. Mary's Bay-Centreville,,44.536239,-66.00172,2022-06-07,2022-08-22,aquaMeasure-670375,3.5,float,19.49,,
2022-07-30T23:19:00,St. Mary's Bay-Centreville,,44.536239,-66.00172,2022-06-07,2022-08-22,aquaMeasure-670375,3.5,float,19.63,,
2022-07-30T23:29:00,St. Mary's Bay-Centreville,,44.536239,-66.00172,2022-06-07,2022-08-22,aquaMeasure-670375,3.5,float,19.45,,
2022-07-30T23:39:00,St. Mary's Bay-Centreville,,44.536239,-66.00172,2022-06-07,2022-08-22,aquaMeasure-670375,3.5,float,19.67,,
2022-07-30T23:49:00,St. Mary's Bay-Centreville,,44.536239,-66.00172,2022-06-07,2022-08-22,aquaMeasure-670375,3.5,float,19.38,,
2022-07-30T23:59:00,St. Mary's Bay-Centreville,,44.536239,-66.00172,2022-06-07,2022-08-22,aquaMeasure-670375,3.5,float,19.13,,
